Location: Seattle
(47.6064°N, 122.3308°W)
Time: 05:55:26
(UTC-08:00)

N. Korean satellite - Pass Details

Date: 09 December 2022
Orbit: 407 x 441 km, 97.3° (Epoch: 05 February)

Event Time Altitude Azimuth Distance (km) Brightness Sun altitude
Rises 06:09:04 0° 4° (N) 2,507 10.1 -15.5°
Reaches altitude 10° 06:11:16 10° 355° (N) 1,619 9.0 -15.1°
Maximum altitude 06:14:25 33° 290° (WNW) 789 7.1 -14.6°
Drops below altitude 10° 06:17:30 10° 225° (SW) 1,579 8.9 -14.1°
Sets 06:19:36 0° 215° (SW) 2,435 10.0 -13.8°
